Tracking 29892 objects as of 21-Nov-2024
HD Live streaming from Space Station
objects crossing your sky now

SL-8 R/B

Track SL-8 R/B now!
10-day predictions


NORAD ID: 9613
Int'l Code: 1976-122B
Perigee: 958.1 km
Apogee: 1,000.5 km
Inclination: 83.0 °
Period: 104.5 minutes
Semi major axis: 7350 km
RCS: 4.5019 m2 (large)
Launch date: December 15, 1976
Source: Commonwealth of Independent States (former USSR) (CIS)
Launch site: PLESETSK MISSILE AND SPACE COMPLEX (PKMTR)

Note: This is a ROCKET BODY
Your satellite tracking list
Your tracking list is empty




NASA's NSSDC Master Catalog

Two Line Element Set (TLE):
1 09613U 76122B   24325.39593687  .00000101  00000-0  85409-4 0  9995
2 09613  82.9511 296.9364 0028794 243.6980 116.1219 13.77673973408600
Source of the keplerian elements: AFSPC